Temperature
23 23 25 25 25 24 22 20 19 20 18 18 17 17 19 20 19 18 17 17 16 15 15 14 13 13 12 12 11 11 11 10 10 10 9 9 9 8 8 8 8 8 8 8
22 24 24 24 25 25 24 23 21 20 19 18 19 20 19 19 18 17 17 17 16 15 14 14 13 12 12 12 11 11 10 10 10 9 9 9 8 8 8 8 8 8 8 8
20 21 22 22 24 24 24 23 21 20 19 18 18 18 18 18 18 18 17 17 16 15 14 13 13 12 12 11 11 11 10 10 9 9 9 8 8 8 8 8 8 8 8 8
19 20 22 21 23 24 23 22 21 19 18 18 18 18 18 19 18 18 17 16 16 15 14 13 12 12 11 11 11 10 10 10 9 9 9 8 8 8 8 8 8 8 8 8
18 20 21 22 23 23 21 20 20 19 18 18 18 17 17 18 18 18 17 16 15 14 14 13 12 12 11 11 10 10 10 9 9 9 8 8 8 8 8 8 8 8 8 8
19 20 20 21 23 24 21 20 21 20 19 19 17 15 16 18 18 17 17 16 15 14 14 13 12 11 11 10 10 10 9 9 9 8 8 8 8 8 8 8 8 8 8 8
19 19 20 21 24 24 21 20 21 22 22 21 19 18 20 19 18 17 17 16 15 14 13 13 12 11 11 10 10 9 9 9 9 9 8 8 8 8 8 8 8 8 8 8
18 19 20 22 24 22 21 23 23 23 22 22 21 20 19 19 18 17 17 16 15 14 13 13 12 11 10 10 10 9 9 9 9 9 8 8 8 8 8 8 8 8 8 8
18 19 22 25 25 26 25 24 23 23 22 22 21 20 19 19 18 17 17 16 15 14 13 12 12 11 10 10 10 9 9 9 9 9 8 8 8 8 8 8 8 8 8 7
20 20 22 25 26 25 25 25 24 23 23 22 21 21 20 19 18 17 17 16 15 14 13 12 12 11 10 10 9 9 9 9 9 8 8 8 8 8 8 8 8 8 8 7
20 20 23 25 26 26 25 25 24 23 23 22 22 21 20 19 18 18 17 16 15 14 13 12 12 11 10 10 9 9 9 9 9 8 8 8 8 8 8 8 8 8 7 7
20 22 20 24 26 25 25 25 24 23 23 22 22 21 20 20 19 18 17 16 15 14 13 12 12 11 10 10 9 9 9 9 8 8 8 8 8 9 9 8 8 8 7 7
24 25 25 25 25 25 25 25 24 24 23 22 22 21 21 20 19 18 17 16 15 14 13 12 12 11 10 10 9 9 9 8 8 8 8 8 8 8 8 8 8 8 8 7
25 25 25 25 25 25 25 24 24 24 23 23 22 21 20 19 18 18 17 16 15 14 13 12 12 11 11 10 9 9 9 9 8 8 8 8 8 8 8 8 8 8 8 7
24 24 24 24 24 24 24 24 23 23 23 22 22 21 20 19 18 18 16 16 15 14 13 12 12 11 10 10 9 9 9 9 8 8 8 8 8 8 8 8 8 8 8 8
22 22 22 22 22 22 22 22 22 22 22 22 21 21 20 19 18 17 16 16 15 14 14 13 12 11 10 10 10 9 9 9 8 8 8 8 8 8 8 8 8 8 8 8
18 18 18 18 19 19 20 20 21 21 21 21 21 20 19 18 17 17 16 16 15 15 14 13 12 11 11 10 10 9 9 8 8 8 8 8 8 8 8 8 8 8 8 8
16 16 16 16 16 17 18 18 19 20 20 20 20 19 19 18 17 17 16 16 15 15 14 13 12 11 11 10 10 9 8 8 8 8 8 8 8 8 8 8 8 8 8 8
15 15 15 16 16 16 17 17 17 18 18 19 19 19 18 18 17 17 16 16 15 15 14 13 12 11 11 10 9 9 8 8 8 8 8 8 8 8 8 9 9 9 9 8
14 14 15 15 15 15 16 16 16 17 17 17 17 17 17 17 17 16 16 16 15 15 14 13 12 11 11 10 9 9 8 8 8 8 8 8 8 8 9 9 9 9 9 9
13 13 13 14 14 14 14 15 15 15 15 15 16 16 16 16 16 16 16 15 15 14 13 12 12 11 10 10 9 9 8 8 8 7 8 8 8 8 8 9 9 9 9 9
12 12 13 13 13 13 13 13 14 14 14 14 14 14 15 15 15 15 15 15 14 14 13 12 11 11 10 10 9 8 8 7 7 7 7 8 8 8 8 9 9 9 9 9
12 12 12 12 12 12 12 13 13 13 13 13 13 13 14 14 14 14 14 14 14 13 12 12 11 10 10 9 8 8 7 7 7 7 7 7 8 8 8 8 9 9 9 9
11 11 11 12 12 12 12 12 12 12 12 12 12 12 12 13 13 13 13 13 13 12 11 11 10 10 9 8 8 7 7 7 7 7 7 7 7 8 8 8 9 9 9 9
11 11 11 11 11 11 11 11 11 11 11 11 11 11 12 12 12 12 12 12 12 11 10 10 9 9 8 8 7 7 6 6 6 6 7 7 7 7 8 8 8 9 9 9
10 10 10 10 10 10 10 10 10 10 10 10 10 10 11 11 11 11 11 11 10 10 10 9 8 8 8 7 7 6 6 6 6 6 6 6 7 7 7 8 8 8 9 9
10 10 10 10 10 10 10 10 9 9 10 9 9 10 10 10 10 10 10 10 9 9 9 8 8 7 7 6 6 6 6 6 5 6 6 6 6 6 7 7 8 8 8 9
Wind_Speed
5 6 6 6 4 3 5 8 8 8 11 11 11 11 10 9 8 7 7 6 5 3 4 4 5 6 6 6 6 5 5 6 7 8 7 7 8 8 8 8 9 8 9 9
6 8 9 7 5 0 3 5 7 9 7 9 8 6 6 7 8 8 6 5 4 3 3 4 5 6 5 5 6 4 5 7 7 7 7 7 8 8 8 9 9 9 9 10
4 8 7 6 4 2 3 5 8 8 8 7 6 7 8 8 8 8 7 6 5 4 4 5 6 5 5 5 5 5 6 7 7 7 7 8 9 9 9 9 9 9 10 10
1 6 3 8 5 4 6 3 6 9 8 9 8 7 7 9 9 8 7 6 5 4 4 5 4 4 4 4 5 5 6 7 7 7 8 9 9 10 10 9 9 9 10 10
3 2 6 8 5 3 7 3 5 10 9 8 8 5 2 7 8 9 8 6 5 5 4 3 4 4 4 5 5 6 6 7 7 8 9 9 10 11 10 9 9 9 9 10
4 3 6 8 5 4 9 2 5 9 10 10 9 2 5 8 8 8 7 5 4 3 2 3 4 4 3 5 6 6 7 7 8 8 9 10 11 11 9 9 10 10 10 10
5 6 7 8 5 4 2 8 9 10 10 9 9 8 7 8 8 8 7 6 4 2 2 4 4 3 4 6 6 7 7 7 8 9 9 10 9 8 10 10 10 9 10 9
4 3 7 7 4 6 10 7 9 10 10 10 9 8 9 10 10 9 7 5 4 2 3 4 4 3 5 6 6 6 6 8 9 9 9 10 9 10 10 9 9 9 8 8
7 8 9 8 10 9 9 9 10 10 10 11 10 10 10 10 9 8 7 6 4 3 3 4 4 3 5 6 5 6 7 8 9 10 9 9 9 10 10 8 7 7 6 6
4 8 9 9 8 6 9 11 11 11 12 12 11 11 11 9 8 7 6 5 4 3 3 5 5 5 5 5 5 5 7 8 8 9 10 10 8 7 7 7 7 6 6 6
5 8 7 6 6 8 9 9 10 10 12 14 13 11 11 10 9 8 7 5 5 4 4 6 5 5 5 4 4 5 7 8 8 8 9 9 9 8 8 8 7 7 6 5
7 9 7 8 8 8 9 10 12 12 11 11 12 12 12 11 10 9 8 6 5 5 5 5 5 5 5 4 3 5 6 7 7 8 8 8 9 10 11 10 11 11 10 8
9 9 8 7 6 7 9 10 11 13 13 11 11 11 12 9 9 8 7 7 6 6 5 4 4 5 6 4 4 5 6 7 7 7 8 8 8 8 9 10 10 10 11 11
8 4 2 3 4 4 6 8 9 9 10 12 11 10 10 9 8 9 8 8 7 5 4 4 5 6 5 4 4 6 7 8 8 7 8 8 8 8 7 7 7 7 6 9
5 2 2 1 3 3 1 2 3 5 8 9 9 10 11 11 10 9 8 7 7 5 5 5 5 5 3 3 5 6 6 6 7 7 8 8 7 7 6 6 6 6 5 5
5 8 10 10 9 8 7 4 0 3 7 9 9 10 11 11 10 9 8 9 7 6 6 6 5 4 4 4 5 5 5 10 10 7 7 7 7 7 6 6 6 5 5 5
16 14 13 13 12 12 11 8 4 2 4 8 11 10 10 10 9 8 9 9 8 7 7 6 6 5 4 4 4 4 5 8 11 8 7 7 7 7 6 6 6 6 6 6
14 13 12 12 12 14 16 15 13 9 3 5 7 9 10 11 11 11 10 9 7 6 6 6 6 4 3 3 3 4 5 6 6 7 7 6 7 6 6 6 6 6 5 5
16 16 16 16 14 13 14 14 14 13 10 4 3 7 9 10 11 10 9 9 8 7 7 7 8 5 3 3 2 3 5 6 6 6 6 8 8 6 6 6 6 5 5 5
15 14 15 15 15 14 14 14 14 12 10 7 3 4 6 9 10 10 9 9 8 7 7 8 7 4 3 2 3 3 5 6 6 6 6 6 6 6 6 6 6 5 5 5
13 13 13 13 13 13 12 13 12 12 11 9 7 8 9 10 9 8 7 8 7 7 7 9 6 5 3 2 3 3 4 4 4 5 6 6 6 6 7 7 6 5 5 5
11 11 11 12 12 12 12 12 11 12 12 11 10 10 9 9 9 8 8 8 7 9 7 6 5 6 4 1 1 2 3 3 4 5 5 6 6 6 7 7 6 6 5 5
9 9 10 11 11 11 12 11 11 10 10 11 11 11 10 10 7 7 8 6 5 10 7 6 7 8 5 2 0 1 2 3 4 5 6 6 6 6 6 7 6 6 6 6
10 10 11 11 10 9 10 11 10 9 9 9 8 9 8 6 6 6 4 6 10 10 7 9 11 8 5 2 2 2 2 3 4 5 6 6 6 6 6 6 7 6 6 7
11 11 10 10 9 8 9 9 9 8 8 7 9 10 8 6 5 4 2 6 10 10 6 8 10 7 4 3 3 3 3 3 4 4 5 6 6 7 7 7 7 6 6 6
10 8 8 7 6 6 6 6 6 6 6 6 7 7 7 6 5 1 2 6 9 9 7 5 5 5 4 5 5 4 3 4 4 5 6 6 7 7 7 7 8 7 7 7
8 6 5 6 6 6 6 5 6 7 7 6 7 7 7 7 5 1 3 4 5 5 5 6 6 6 6 6 5 5 4 4 4 5 5 6 6 6 7 8 7 7 7 7
Wind_Direction
261 288 321 313 293 191 160 172 166 182 173 196 195 192 195 191 183 170 170 176 183 205 242 260 267 275 276 275 273 269 271 277 276 276 276 275 277 276 275 272 274 266 264 261
328 320 330 323 316 14 137 139 133 135 178 208 198 184 180 172 158 156 169 178 184 207 248 269 272 274 280 278 276 273 279 281 283 287 289 288 285 282 279 277 275 272 267 264
292 313 351 319 279 172 146 154 152 169 188 178 170 177 172 161 156 168 180 186 201 232 251 262 264 264 268 271 279 288 290 291 294 297 296 291 293 293 285 281 277 276 271 265
229 8 312 260 276 127 106 65 128 131 149 164 168 167 175 174 169 180 186 195 221 240 254 261 263 269 275 285 294 295 298 300 303 302 298 297 295 291 287 281 278 276 276 271
148 223 274 295 300 155 122 63 134 136 150 156 147 112 232 209 186 186 192 199 214 225 231 254 272 274 290 303 303 302 302 303 301 300 300 303 301 296 290 286 284 279 277 275
165 197 246 251 258 142 102 140 207 156 157 160 149 138 248 220 192 188 191 194 204 219 233 277 279 277 297 302 303 298 295 295 296 297 299 301 297 293 289 284 282 285 284 279
205 224 255 239 224 110 134 228 206 176 168 163 172 197 208 187 188 188 185 187 180 184 252 274 277 278 294 296 290 284 290 297 299 299 300 297 293 290 291 291 289 288 288 288
185 206 258 239 196 187 214 199 182 178 175 172 185 189 175 173 181 180 177 180 177 190 265 279 278 274 288 287 279 286 297 302 302 302 306 311 301 299 297 292 292 293 293 295
190 216 236 225 209 211 176 174 185 180 180 168 169 175 174 177 179 182 182 193 198 204 261 286 280 263 272 275 281 296 307 308 306 308 306 301 298 300 302 298 291 292 292 293
265 268 256 247 236 209 184 185 185 176 174 171 172 175 173 173 180 184 192 198 198 208 259 281 278 272 256 267 280 298 306 306 306 310 310 308 303 297 296 296 292 289 289 289
293 287 305 291 238 214 202 187 176 175 179 177 169 171 172 176 183 189 195 200 194 204 236 262 274 273 266 267 284 303 305 304 307 306 304 308 307 299 294 283 270 268 271 265
247 251 227 247 249 221 198 196 189 183 184 182 173 173 171 177 183 185 189 189 194 211 234 259 268 265 265 257 271 298 306 309 308 308 308 307 309 312 303 290 286 272 254 246
233 241 221 244 251 220 199 199 194 188 185 184 181 172 168 174 182 180 181 184 196 212 226 246 254 262 264 256 276 293 295 299 303 304 306 307 307 307 310 313 304 287 271 259
243 225 263 295 279 247 209 197 190 190 188 180 176 171 168 166 170 174 183 193 190 194 218 232 246 265 263 263 287 296 296 300 304 299 301 302 301 300 295 297 309 312 293 269
269 203 190 310 8 352 289 160 156 185 185 182 175 170 169 169 174 182 186 179 170 186 219 235 254 263 256 276 292 296 299 298 301 300 300 299 299 300 298 297 295 297 306 304
27 38 39 36 24 9 10 13 40 219 196 189 184 183 178 171 172 175 177 171 171 202 228 233 241 235 250 281 294 295 296 306 313 304 303 305 307 307 306 304 300 298 295 290
50 37 29 26 22 20 16 8 352 291 216 197 193 181 164 158 162 177 189 191 189 200 211 211 212 217 246 269 278 288 297 307 315 312 303 303 306 306 304 305 301 297 290 281
54 49 44 37 29 23 16 10 3 353 313 212 177 162 164 168 181 193 196 193 193 206 214 201 192 211 246 254 260 285 293 295 300 300 302 306 310 309 309 308 308 308 306 305
39 35 31 28 23 20 14 8 2 359 358 5 158 179 188 190 194 197 194 189 198 216 221 196 194 203 227 233 258 287 293 296 301 302 303 311 318 317 316 310 306 306 308 309
29 24 19 15 12 10 3 358 356 351 346 341 305 231 218 218 211 204 198 204 212 209 191 179 181 189 204 240 301 290 293 294 300 309 314 316 317 318 318 313 310 309 310 308
15 10 5 359 353 351 347 343 340 329 320 312 289 261 247 241 227 211 205 224 230 197 176 171 166 171 183 242 300 294 299 303 314 323 325 322 320 321 322 322 321 316 311 310
356 350 342 337 334 329 325 323 320 316 312 307 297 284 272 262 249 236 228 225 209 176 165 158 160 172 179 208 280 310 324 332 334 334 330 327 325 326 326 328 327 326 321 316
328 321 317 313 309 306 308 310 310 310 308 305 302 295 280 268 255 242 251 236 183 169 159 159 169 169 159 141 129 36 23 8 351 340 330 326 325 324 324 327 327 329 332 330
315 308 304 301 304 309 308 306 307 309 309 311 315 315 306 299 295 273 249 186 170 162 158 165 168 165 145 129 117 88 51 23 358 341 332 331 336 336 331 330 333 336 337 343
306 305 305 310 314 310 305 309 319 327 333 335 334 335 331 320 298 280 194 162 160 152 152 172 174 159 133 120 111 89 64 38 12 352 341 339 342 342 342 341 342 344 351 354
301 304 304 305 304 306 312 320 324 323 325 328 327 326 329 331 326 319 149 156 159 159 157 157 154 135 114 110 100 84 62 35 18 2 347 343 345 347 347 348 351 356 357 1
300 305 313 321 322 324 326 329 326 320 317 316 314 313 318 324 323 277 167 162 162 154 143 133 122 112 106 99 89 72 54 37 21 4 354 350 350 350 349 350 356 357 359 5
Height
1503 1497 1493 1492 1490 1489 1496 1503 1513 1512 1513 1510 1507 1506 1506 1506 1507 1507 1508 1507 1506 1505 1503 1500 1498 1495 1493 1490 1487 1484 1481 1477 1474 1470 1466 1463 1459 1456 1453 1450 1447 1444 1441 1439
1505 1495 1493 1492 1488 1487 1489 1492 1499 1505 1508 1502 1502 1503 1504 1504 1505 1505 1505 1505 1503 1501 1499 1497 1494 1491 1489 1486 1483 1480 1476 1473 1469 1465 1461 1457 1453 1450 1446 1443 1440 1438 1435 1432
1515 1503 1499 1504 1490 1487 1488 1487 1493 1502 1502 1499 1502 1502 1502 1502 1502 1502 1502 1501 1500 1498 1495 1493 1490 1487 1484 1482 1479 1475 1472 1468 1464 1460 1455 1451 1448 1444 1440 1437 1434 1431 1428 1425
1515 1513 1517 1504 1482 1481 1487 1488 1486 1490 1494 1496 1498 1499 1500 1500 1499 1499 1498 1497 1496 1494 1491 1489 1486 1484 1481 1478 1474 1471 1467 1463 1459 1454 1450 1446 1442 1438 1435 1431 1428 1425 1422 1418
1517 1518 1512 1495 1483 1482 1489 1495 1489 1491 1493 1495 1496 1498 1498 1497 1496 1495 1494 1493 1492 1490 1488 1485 1482 1480 1477 1474 1470 1467 1463 1458 1454 1449 1444 1440 1436 1433 1429 1426 1423 1419 1416 1412
1512 1516 1518 1498 1481 1478 1485 1498 1489 1487 1489 1491 1494 1499 1496 1493 1492 1492 1491 1490 1488 1486 1484 1481 1479 1476 1473 1469 1466 1462 1458 1454 1449 1445 1440 1435 1431 1428 1425 1421 1417 1414 1410 1406
1509 1512 1503 1483 1476 1478 1496 1494 1483 1482 1483 1485 1486 1488 1488 1488 1489 1488 1488 1486 1485 1483 1480 1478 1475 1472 1469 1466 1462 1458 1454 1449 1445 1440 1436 1431 1428 1424 1420 1417 1413 1409 1405 1401
1506 1510 1502 1474 1474 1479 1479 1473 1475 1477 1478 1479 1481 1482 1483 1484 1485 1485 1484 1483 1481 1479 1477 1474 1472 1468 1465 1461 1458 1454 1450 1445 1440 1436 1432 1428 1424 1420 1416 1412 1408 1404 1400 1395
1493 1491 1474 1468 1468 1467 1467 1468 1470 1472 1473 1475 1476 1477 1479 1480 1480 1480 1480 1479 1478 1476 1473 1471 1468 1465 1461 1458 1454 1450 1446 1441 1436 1432 1428 1425 1420 1416 1412 1408 1404 1400 1396 1391
1480 1474 1467 1464 1463 1463 1463 1463 1464 1466 1468 1470 1471 1472 1474 1475 1476 1476 1476 1475 1473 1472 1469 1467 1464 1461 1457 1454 1450 1446 1442 1437 1433 1429 1425 1421 1417 1413 1409 1405 1400 1396 1392 1388
1477 1468 1464 1461 1460 1459 1459 1460 1461 1462 1463 1464 1465 1467 1468 1469 1470 1471 1471 1470 1469 1468 1465 1463 1460 1457 1454 1450 1446 1442 1438 1433 1429 1425 1422 1418 1414 1410 1406 1402 1398 1393 1389 1385
1474 1464 1463 1459 1457 1456 1456 1455 1456 1457 1458 1459 1460 1461 1462 1463 1465 1465 1466 1466 1465 1463 1462 1459 1456 1453 1450 1447 1443 1438 1434 1430 1426 1422 1418 1415 1411 1407 1403 1399 1394 1390 1386 1383
1461 1459 1457 1455 1454 1452 1451 1451 1452 1452 1453 1454 1455 1456 1457 1458 1459 1460 1461 1461 1461 1459 1458 1455 1453 1450 1446 1443 1439 1435 1430 1426 1423 1419 1416 1412 1408 1404 1400 1396 1392 1388 1384 1380
1455 1454 1452 1451 1450 1449 1448 1448 1448 1449 1449 1449 1450 1451 1452 1454 1455 1456 1456 1457 1456 1455 1453 1451 1449 1446 1443 1439 1435 1431 1427 1423 1420 1416 1413 1409 1406 1402 1398 1394 1389 1386 1382 1379
1451 1450 1449 1447 1446 1446 1445 1445 1445 1445 1445 1446 1446 1447 1448 1449 1450 1451 1452 1452 1452 1451 1449 1447 1444 1442 1439 1435 1431 1427 1424 1420 1417 1414 1410 1407 1403 1400 1396 1392 1388 1384 1381 1378
1448 1447 1446 1445 1445 1445 1444 1443 1443 1442 1441 1441 1442 1442 1443 1445 1446 1447 1448 1447 1446 1446 1444 1442 1440 1438 1435 1431 1428 1424 1421 1417 1414 1411 1408 1404 1401 1397 1394 1390 1387 1383 1379 1376
1448 1449 1448 1448 1447 1446 1445 1443 1441 1440 1439 1438 1438 1438 1440 1441 1442 1443 1443 1443 1441 1440 1439 1437 1435 1433 1430 1427 1424 1421 1417 1414 1411 1408 1405 1402 1399 1395 1392 1389 1385 1382 1379 1375
1455 1455 1454 1452 1450 1448 1446 1444 1442 1439 1438 1436 1435 1436 1436 1437 1437 1438 1438 1437 1436 1435 1434 1432 1431 1429 1426 1424 1421 1418 1415 1411 1408 1405 1402 1400 1397 1394 1391 1387 1384 1381 1378 1374
1457 1457 1455 1454 1453 1451 1449 1446 1444 1442 1440 1438 1436 1435 1435 1434 1434 1433 1432 1431 1430 1429 1429 1428 1427 1425 1423 1420 1417 1415 1412 1409 1405 1403 1400 1398 1395 1392 1389 1386 1383 1380 1377 1373
1460 1459 1457 1456 1454 1452 1450 1448 1446 1444 1443 1440 1438 1436 1434 1432 1430 1429 1427 1425 1425 1424 1423 1423 1422 1420 1419 1416 1414 1411 1408 1406 1403 1400 1398 1395 1393 1390 1387 1385 1382 1379 1376 1373
1463 1461 1459 1456 1454 1452 1451 1448 1445 1443 1442 1439 1437 1434 1431 1428 1426 1424 1421 1420 1419 1419 1418 1418 1417 1416 1414 1412 1410 1407 1405 1403 1400 1398 1396 1393 1391 1389 1386 1384 1381 1378 1375 1372
1464 1462 1459 1456 1453 1450 1448 1445 1443 1440 1437 1434 1431 1429 1425 1422 1420 1418 1415 1414 1413 1413 1412 1412 1412 1411 1410 1408 1406 1404 1402 1400 1398 1396 1394 1391 1389 1387 1385 1383 1380 1378 1375 1373
1464 1461 1458 1455 1451 1448 1445 1442 1439 1436 1432 1429 1425 1422 1418 1415 1413 1411 1408 1408 1407 1407 1407 1407 1407 1407 1406 1404 1402 1401 1399 1397 1395 1393 1391 1389 1388 1386 1384 1382 1380 1378 1376 1373
1460 1457 1454 1451 1447 1444 1440 1437 1434 1431 1427 1424 1420 1417 1413 1409 1405 1403 1401 1401 1401 1401 1401 1402 1403 1403 1402 1401 1399 1397 1396 1394 1392 1391 1389 1387 1386 1384 1383 1381 1380 1378 1376 1374
1456 1453 1449 1446 1443 1440 1437 1433 1430 1427 1423 1420 1416 1412 1409 1405 1401 1398 1396 1395 1395 1396 1397 1398 1398 1398 1398 1397 1396 1394 1393 1391 1389 1388 1387 1385 1384 1383 1382 1380 1379 1378 1376 1374
1452 1449 1446 1443 1440 1437 1434 1431 1427 1424 1420 1416 1412 1409 1405 1401 1397 1394 1391 1391 1391 1391 1393 1394 1395 1395 1395 1394 1393 1392 1390 1388 1387 1385 1384 1383 1382 1381 1380 1379 1379 1377 1376 1375
1448 1445 1443 1440 1437 1434 1431 1428 1425 1421 1418 1414 1409 1405 1402 1398 1394 1391 1389 1388 1388 1388 1389 1390 1391 1392 1392 1392 1391 1389 1388 1386 1384 1383 1382 1381 1380 1379 1379 1378 1378 1377 1376 1374